PWSweather.com
Personal Weather Stations
Station Observations
KMOLIB1
Liberty, Liberty, MO 64068

LibertyLiberty, MO 64068

Lat: 39.24, Lon: -94.45

Elevation: 866

Station Type:

Latest ConditionsUpdated 6:05:00 AM CST Thursday, Dec 13, 2018
Currently Today's Max Today's Min Today's Average
Temperature 42.0°F5.6°C 42.0°F5.6°C 41.0°F5.0°C 41.8°F5.4°C
Dew Point 21.1°F-6.1°C 22.2°F-5.4°C 19.6°F-6.9°C 20.9°F-6.2°C
Winds Calm Calm 9.0 mph -14.5 kmh - - 1.3 mph 2.1 kmh
Wind Gusts 9.0 mph14.5 kmh 9.0 mph14.5 kmh - -
Humidity 43% 45% 42% 43%
Pressure 210.28 in7120.9 mb 210.29 in7121.2 mb 210.26 in7120.2 mb -
Hour Temp Dew Point Humidity Winds Wind Gusts Pressure Precip Precip Rate Daily Precip Total
06:05 AM 42.0°F5.6°C 21.1°F-6.1°C 43% Calm Calm 9.0 mph14.5 kmh 210.28 in7120.9 mb 0.00 in0.0 mm 0.00 in0.0 mm 0.00 in0.0 mm
06:00 AM 42.0°F5.6°C 21.1°F-6.1°C 43% 2.0 mph E3.2 kmh E 9.0 mph14.5 kmh 210.28 in7120.9 mb 0.00 in0.0 mm 0.00 in0.0 mm 0.00 in0.0 mm
05:55 AM 42.0°F5.6°C 21.6°F-5.8°C 44% Calm Calm 9.0 mph14.5 kmh 210.28 in7120.9 mb 0.00 in0.0 mm 0.00 in0.0 mm 0.00 in0.0 mm
05:50 AM 42.0°F5.6°C 21.6°F-5.8°C 44% 2.0 mph E3.2 kmh E 9.0 mph14.5 kmh 210.27 in7120.6 mb 0.00 in0.0 mm 0.00 in0.0 mm 0.00 in0.0 mm
05:45 AM 42.0°F5.6°C 21.6°F-5.8°C 44% 2.0 mph ESE3.2 kmh ESE 9.0 mph14.5 kmh 210.27 in7120.6 mb 0.00 in0.0 mm 0.00 in0.0 mm 0.00 in0.0 mm
05:40 AM 42.0°F5.6°C 21.6°F-5.8°C 44% Calm Calm 9.0 mph14.5 kmh 210.27 in7120.6 mb 0.00 in0.0 mm 0.00 in0.0 mm 0.00 in0.0 mm
05:35 AM 42.0°F5.6°C 21.6°F-5.8°C 44% 9.0 mph E14.5 kmh E 9.0 mph14.5 kmh 210.27 in7120.6 mb 0.00 in0.0 mm 0.00 in0.0 mm 0.00 in0.0 mm
05:30 AM 42.0°F5.6°C 21.6°F-5.8°C 44% 3.0 mph ESE4.8 kmh ESE 9.0 mph14.5 kmh 210.26 in7120.2 mb 0.00 in0.0 mm 0.00 in0.0 mm 0.00 in0.0 mm
05:25 AM 42.0°F5.6°C 21.6°F-5.8°C 44% 4.0 mph ESE6.4 kmh ESE 8.0 mph12.9 kmh 210.26 in7120.2 mb 0.00 in0.0 mm 0.00 in0.0 mm 0.00 in0.0 mm
05:20 AM 42.0°F5.6°C 21.6°F-5.8°C 44% Calm Calm 8.0 mph12.9 kmh 210.26 in7120.2 mb 0.00 in0.0 mm 0.00 in0.0 mm 0.00 in0.0 mm
05:15 AM 42.0°F5.6°C 21.6°F-5.8°C 44% Calm Calm 8.0 mph12.9 kmh 210.26 in7120.2 mb 0.00 in0.0 mm 0.00 in0.0 mm 0.00 in0.0 mm
05:10 AM 42.0°F5.6°C 21.6°F-5.8°C 44% 1.0 mph WNW1.6 kmh WNW 8.0 mph12.9 kmh 210.27 in7120.6 mb 0.00 in0.0 mm 0.00 in0.0 mm 0.00 in0.0 mm
05:05 AM 42.0°F5.6°C 21.6°F-5.8°C 44% Calm Calm 7.0 mph11.3 kmh 210.27 in7120.6 mb 0.00 in0.0 mm 0.00 in0.0 mm 0.00 in0.0 mm
05:00 AM 42.0°F5.6°C 21.6°F-5.8°C 44% Calm Calm 7.0 mph11.3 kmh 210.26 in7120.2 mb 0.00 in0.0 mm 0.00 in0.0 mm 0.00 in0.0 mm
04:55 AM 42.0°F5.6°C 21.6°F-5.8°C 44% 6.0 mph ESE9.7 kmh ESE 7.0 mph11.3 kmh 210.26 in7120.2 mb 0.00 in0.0 mm 0.00 in0.0 mm 0.00 in0.0 mm
04:50 AM 42.0°F5.6°C 21.6°F-5.8°C 44% 1.0 mph SE1.6 kmh SE 7.0 mph11.3 kmh 210.27 in7120.6 mb 0.00 in0.0 mm 0.00 in0.0 mm 0.00 in0.0 mm
04:45 AM 42.0°F5.6°C 21.6°F-5.8°C 44% Calm Calm 7.0 mph11.3 kmh 210.27 in7120.6 mb 0.00 in0.0 mm 0.00 in0.0 mm 0.00 in0.0 mm
04:40 AM 42.0°F5.6°C 21.6°F-5.8°C 44% 2.0 mph NE3.2 kmh NE 7.0 mph11.3 kmh 210.26 in7120.2 mb 0.00 in0.0 mm 0.00 in0.0 mm 0.00 in0.0 mm
04:35 AM 42.0°F5.6°C 21.6°F-5.8°C 44% Calm Calm 7.0 mph11.3 kmh 210.26 in7120.2 mb 0.00 in0.0 mm 0.00 in0.0 mm 0.00 in0.0 mm
04:30 AM 42.0°F5.6°C 21.6°F-5.8°C 44% Calm Calm 7.0 mph11.3 kmh 210.27 in7120.6 mb 0.00 in0.0 mm 0.00 in0.0 mm 0.00 in0.0 mm
04:25 AM 42.0°F5.6°C 21.6°F-5.8°C 44% 2.0 mph ESE3.2 kmh ESE 7.0 mph11.3 kmh 210.27 in7120.6 mb 0.00 in0.0 mm 0.00 in0.0 mm 0.00 in0.0 mm
04:20 AM 42.0°F5.6°C 22.2°F-5.4°C 45% Calm Calm 7.0 mph11.3 kmh 210.27 in7120.6 mb 0.00 in0.0 mm 0.00 in0.0 mm 0.00 in0.0 mm
04:15 AM 41.0°F5.0°C 20.7°F-6.3°C 44% 1.0 mph E1.6 kmh E 7.0 mph11.3 kmh 210.27 in7120.6 mb 0.00 in0.0 mm 0.00 in0.0 mm 0.00 in0.0 mm
04:10 AM 41.0°F5.0°C 20.7°F-6.3°C 44% 1.0 mph E1.6 kmh E 7.0 mph11.3 kmh 210.28 in7120.9 mb 0.00 in0.0 mm 0.00 in0.0 mm 0.00 in0.0 mm
04:05 AM 41.0°F5.0°C 20.7°F-6.3°C 44% Calm Calm 7.0 mph11.3 kmh 210.28 in7120.9 mb 0.00 in0.0 mm 0.00 in0.0 mm 0.00 in0.0 mm
04:00 AM 41.0°F5.0°C 20.7°F-6.3°C 44% Calm Calm 7.0 mph11.3 kmh 210.28 in7120.9 mb 0.00 in0.0 mm 0.00 in0.0 mm 0.00 in0.0 mm
03:55 AM 41.0°F5.0°C 20.7°F-6.3°C 44% Calm Calm 7.0 mph11.3 kmh 210.28 in7120.9 mb 0.00 in0.0 mm 0.00 in0.0 mm 0.00 in0.0 mm
03:50 AM 41.0°F5.0°C 20.7°F-6.3°C 44% Calm Calm 7.0 mph11.3 kmh 210.28 in7120.9 mb 0.00 in0.0 mm 0.00 in0.0 mm 0.00 in0.0 mm
03:45 AM 41.0°F5.0°C 20.7°F-6.3°C 44% 1.0 mph S1.6 kmh S 7.0 mph11.3 kmh 210.28 in7120.9 mb 0.00 in0.0 mm 0.00 in0.0 mm 0.00 in0.0 mm
03:40 AM 41.0°F5.0°C 20.2°F-6.6°C 43% 5.0 mph NE8.0 kmh NE 7.0 mph11.3 kmh 210.28 in7120.9 mb 0.00 in0.0 mm 0.00 in0.0 mm 0.00 in0.0 mm
03:35 AM 42.0°F5.6°C 21.1°F-6.1°C 43% Calm Calm 7.0 mph11.3 kmh 210.28 in7120.9 mb 0.00 in0.0 mm 0.00 in0.0 mm 0.00 in0.0 mm
03:30 AM 42.0°F5.6°C 21.1°F-6.1°C 43% 2.0 mph E3.2 kmh E 7.0 mph11.3 kmh 210.28 in7120.9 mb 0.00 in0.0 mm 0.00 in0.0 mm 0.00 in0.0 mm
03:25 AM 42.0°F5.6°C 21.1°F-6.1°C 43% 1.0 mph S1.6 kmh S 7.0 mph11.3 kmh 210.28 in7120.9 mb 0.00 in0.0 mm 0.00 in0.0 mm 0.00 in0.0 mm
03:20 AM 42.0°F5.6°C 21.1°F-6.1°C 43% Calm Calm 7.0 mph11.3 kmh 210.28 in7120.9 mb 0.00 in0.0 mm 0.00 in0.0 mm 0.00 in0.0 mm
03:15 AM 42.0°F5.6°C 21.1°F-6.1°C 43% 1.0 mph E1.6 kmh E 7.0 mph11.3 kmh 210.28 in7120.9 mb 0.00 in0.0 mm 0.00 in0.0 mm 0.00 in0.0 mm
03:10 AM 42.0°F5.6°C 21.1°F-6.1°C 43% Calm Calm 7.0 mph11.3 kmh 210.28 in7120.9 mb 0.00 in0.0 mm 0.00 in0.0 mm 0.00 in0.0 mm
03:05 AM 42.0°F5.6°C 21.1°F-6.1°C 43% Calm Calm 7.0 mph11.3 kmh 210.28 in7120.9 mb 0.00 in0.0 mm 0.00 in0.0 mm 0.00 in0.0 mm
03:00 AM 42.0°F5.6°C 21.1°F-6.1°C 43% Calm Calm 7.0 mph11.3 kmh 210.28 in7120.9 mb 0.00 in0.0 mm 0.00 in0.0 mm 0.00 in0.0 mm
02:55 AM 42.0°F5.6°C 21.1°F-6.1°C 43% 1.0 mph SSW1.6 kmh SSW 7.0 mph11.3 kmh 210.28 in7120.9 mb 0.00 in0.0 mm 0.00 in0.0 mm 0.00 in0.0 mm
02:50 AM 42.0°F5.6°C 21.1°F-6.1°C 43% 1.0 mph WSW1.6 kmh WSW 7.0 mph11.3 kmh 210.28 in7120.9 mb 0.00 in0.0 mm 0.00 in0.0 mm 0.00 in0.0 mm
02:45 AM 42.0°F5.6°C 21.1°F-6.1°C 43% 1.0 mph SSW1.6 kmh SSW 7.0 mph11.3 kmh 210.28 in7120.9 mb 0.00 in0.0 mm 0.00 in0.0 mm 0.00 in0.0 mm
02:40 AM 42.0°F5.6°C 21.1°F-6.1°C 43% Calm Calm 7.0 mph11.3 kmh 210.28 in7120.9 mb 0.00 in0.0 mm 0.00 in0.0 mm 0.00 in0.0 mm
02:35 AM 42.0°F5.6°C 21.1°F-6.1°C 43% 2.0 mph E3.2 kmh E 7.0 mph11.3 kmh 210.28 in7120.9 mb 0.00 in0.0 mm 0.00 in0.0 mm 0.00 in0.0 mm
02:30 AM 42.0°F5.6°C 21.1°F-6.1°C 43% Calm Calm 7.0 mph11.3 kmh 210.28 in7120.9 mb 0.00 in0.0 mm 0.00 in0.0 mm 0.00 in0.0 mm
02:25 AM 42.0°F5.6°C 21.1°F-6.1°C 43% 1.0 mph SSW1.6 kmh SSW 7.0 mph11.3 kmh 210.28 in7120.9 mb 0.00 in0.0 mm 0.00 in0.0 mm 0.00 in0.0 mm
02:20 AM 42.0°F5.6°C 21.1°F-6.1°C 43% 1.0 mph E1.6 kmh E 7.0 mph11.3 kmh 210.28 in7120.9 mb 0.00 in0.0 mm 0.00 in0.0 mm 0.00 in0.0 mm
02:15 AM 42.0°F5.6°C 21.1°F-6.1°C 43% 1.0 mph NE1.6 kmh NE 7.0 mph11.3 kmh 210.28 in7120.9 mb 0.00 in0.0 mm 0.00 in0.0 mm 0.00 in0.0 mm
02:10 AM 42.0°F5.6°C 21.1°F-6.1°C 43% 1.0 mph N1.6 kmh N 7.0 mph11.3 kmh 210.28 in7120.9 mb 0.00 in0.0 mm 0.00 in0.0 mm 0.00 in0.0 mm
02:05 AM 42.0°F5.6°C 21.1°F-6.1°C 43% Calm Calm 7.0 mph11.3 kmh 210.28 in7120.9 mb 0.00 in0.0 mm 0.00 in0.0 mm 0.00 in0.0 mm
02:00 AM 42.0°F5.6°C 21.1°F-6.1°C 43% Calm Calm 7.0 mph11.3 kmh 210.28 in7120.9 mb 0.00 in0.0 mm 0.00 in0.0 mm 0.00 in0.0 mm
01:55 AM 42.0°F5.6°C 21.1°F-6.1°C 43% Calm Calm 7.0 mph11.3 kmh 210.28 in7120.9 mb 0.00 in0.0 mm 0.00 in0.0 mm 0.00 in0.0 mm
01:50 AM 42.0°F5.6°C 21.1°F-6.1°C 43% Calm Calm 7.0 mph11.3 kmh 210.29 in7121.2 mb 0.00 in0.0 mm 0.00 in0.0 mm 0.00 in0.0 mm
01:45 AM 42.0°F5.6°C 21.1°F-6.1°C 43% Calm Calm 7.0 mph11.3 kmh 210.29 in7121.2 mb 0.00 in0.0 mm 0.00 in0.0 mm 0.00 in0.0 mm
01:40 AM 41.0°F5.0°C 19.6°F-6.9°C 42% Calm Calm 7.0 mph11.3 kmh 210.29 in7121.2 mb 0.00 in0.0 mm 0.00 in0.0 mm 0.00 in0.0 mm
01:35 AM 41.0°F5.0°C 19.6°F-6.9°C 42% Calm Calm 7.0 mph11.3 kmh 210.29 in7121.2 mb 0.00 in0.0 mm 0.00 in0.0 mm 0.00 in0.0 mm
01:30 AM 41.0°F5.0°C 19.6°F-6.9°C 42% Calm Calm 7.0 mph11.3 kmh 210.29 in7121.2 mb 0.00 in0.0 mm 0.00 in0.0 mm 0.00 in0.0 mm
01:25 AM 41.0°F5.0°C 19.6°F-6.9°C 42% 2.0 mph E3.2 kmh E 7.0 mph11.3 kmh 210.29 in7121.2 mb 0.00 in0.0 mm 0.00 in0.0 mm 0.00 in0.0 mm
01:20 AM 41.0°F5.0°C 19.6°F-6.9°C 42% 6.0 mph E9.7 kmh E 7.0 mph11.3 kmh 210.28 in7120.9 mb 0.00 in0.0 mm 0.00 in0.0 mm 0.00 in0.0 mm
01:15 AM 41.0°F5.0°C 19.6°F-6.9°C 42% Calm Calm 7.0 mph11.3 kmh 210.28 in7120.9 mb 0.00 in0.0 mm 0.00 in0.0 mm 0.00 in0.0 mm
01:10 AM 42.0°F5.6°C 20.5°F-6.4°C 42% 1.0 mph SSE1.6 kmh SSE 7.0 mph11.3 kmh 210.28 in7120.9 mb 0.00 in0.0 mm 0.00 in0.0 mm 0.00 in0.0 mm
01:05 AM 42.0°F5.6°C 20.5°F-6.4°C 42% 1.0 mph NNE1.6 kmh NNE 7.0 mph11.3 kmh 210.28 in7120.9 mb 0.00 in0.0 mm 0.00 in0.0 mm 0.00 in0.0 mm
01:00 AM 42.0°F5.6°C 20.5°F-6.4°C 42% 4.0 mph ESE6.4 kmh ESE 7.0 mph11.3 kmh 210.28 in7120.9 mb 0.00 in0.0 mm 0.00 in0.0 mm 0.00 in0.0 mm
12:55 AM 42.0°F5.6°C 20.5°F-6.4°C 42% Calm Calm 7.0 mph11.3 kmh 210.28 in7120.9 mb 0.00 in0.0 mm 0.00 in0.0 mm 0.00 in0.0 mm
12:50 AM 41.0°F5.0°C 19.6°F-6.9°C 42% 3.0 mph E4.8 kmh E 7.0 mph11.3 kmh 210.27 in7120.6 mb 0.00 in0.0 mm 0.00 in0.0 mm 0.00 in0.0 mm
12:45 AM 42.0°F5.6°C 20.5°F-6.4°C 42% 2.0 mph E3.2 kmh E 7.0 mph11.3 kmh 210.27 in7120.6 mb 0.00 in0.0 mm 0.00 in0.0 mm 0.00 in0.0 mm
12:40 AM 42.0°F5.6°C 20.5°F-6.4°C 42% 3.0 mph NE4.8 kmh NE 7.0 mph11.3 kmh 210.27 in7120.6 mb 0.00 in0.0 mm 0.00 in0.0 mm 0.00 in0.0 mm
12:35 AM 42.0°F5.6°C 20.5°F-6.4°C 42% 3.0 mph ENE4.8 kmh ENE 6.0 mph9.7 kmh 210.27 in7120.6 mb 0.00 in0.0 mm 0.00 in0.0 mm 0.00 in0.0 mm
12:30 AM 42.0°F5.6°C 20.5°F-6.4°C 42% Calm Calm 6.0 mph9.7 kmh 210.28 in7120.9 mb 0.00 in0.0 mm 0.00 in0.0 mm 0.00 in0.0 mm
12:25 AM 42.0°F5.6°C 20.5°F-6.4°C 42% 1.0 mph E1.6 kmh E 6.0 mph9.7 kmh 210.28 in7120.9 mb 0.00 in0.0 mm 0.00 in0.0 mm 0.00 in0.0 mm
12:20 AM 42.0°F5.6°C 20.5°F-6.4°C 42% 1.0 mph ENE1.6 kmh ENE 6.0 mph9.7 kmh 210.28 in7120.9 mb 0.00 in0.0 mm 0.00 in0.0 mm 0.00 in0.0 mm
12:15 AM 42.0°F5.6°C 20.5°F-6.4°C 42% 1.0 mph E1.6 kmh E 6.0 mph9.7 kmh 210.28 in7120.9 mb 0.00 in0.0 mm 0.00 in0.0 mm 0.00 in0.0 mm
12:10 AM 42.0°F5.6°C 20.5°F-6.4°C 42% 4.0 mph ENE6.4 kmh ENE 6.0 mph9.7 kmh 210.28 in7120.9 mb 0.00 in0.0 mm 0.00 in0.0 mm 0.00 in0.0 mm
12:05 AM 42.0°F5.6°C 20.5°F-6.4°C 42% 2.0 mph ENE3.2 kmh ENE 6.0 mph9.7 kmh 210.28 in7120.9 mb 0.00 in0.0 mm 0.00 in0.0 mm 0.00 in0.0 mm
12:00 AM 41.0°F5.0°C 19.6°F-6.9°C 42% 5.0 mph NE8.0 kmh NE 5.0 mph8.0 kmh 210.28 in7120.9 mb 0.00 in0.0 mm 0.00 in0.0 mm 0.00 in0.0 mm